Flag for Iceland Weather past 2 weeks in Keflavík, Iceland

Now
30 °F

Snow. Mostly cloudy.


Feels Like: 22 °F
Forecast: 30 / 33 °F
Wind: 9 mph from South

Location: Keflavikurflugvollur

Current Time: Feb 1, 2015 at 5:03:22 AM

Latest Report: Feb 1, 2015 at 4:30 AM


Visibility: 2 mi

Pressure: 29.74 "Hg

Humidity: 100%

Dew point: 30 °F

Location of KeflavíkLocation

Historic Weather in Keflavík — Graph

°F

Keflavík temperature yesterday

Maximum temperature yesterday: 34 °F (at 12:00 PM)
Minimum temperature yesterday: 23 °F (at 4:00 AM)
Average temperature yesterday: 29 °F

Past Weeks' High & Low Weather Summary

 TemperatureHumidityPressure
High43 °F (Jan 26, 7:30 PM)100% (Jan 17, 8:00 AM)30.36 "Hg (Jan 17, 8:00 AM)
Low18 °F (Jan 18, 8:00 AM)51% (Jan 25, 8:30 PM)28.59 "Hg (Jan 25, 9:00 AM)
Average33 °F83%29.37 "Hg
* Reported Jan 17 4:00 AM — Feb 1 4:00 AM, Keflavík, Weather by CustomWeather, © 2014

Note: Actual official high and low records may vary slightly from our data, if they occured in-between our weather recording intervals... More about our weather records

Advertising

Keflavík weather history for previous 24 hours

 ConditionsComfort  
Time TempWeatherWind HumidityBarometerVisibility
4:00 AM
Feb 1
32 °FSnow. Mostly cloudy.14 mph100%29.74 "Hg2 mi
3:30 AM30 °FScattered showers. Partly cloudy.14 mph100%29.74 "HgN/A
3:00 AM30 °FScattered showers. Mostly cloudy.15 mph93%29.77 "HgN/A
2:30 AM30 °FScattered showers. Partly cloudy.15 mph93%29.77 "HgN/A
2:00 AM30 °FScattered showers. Partly cloudy.15 mph93%29.77 "HgN/A
1:30 AM30 °FScattered showers. Partly cloudy.14 mph93%29.80 "HgN/A
1:00 AM30 °FScattered showers. Partly cloudy.15 mph100%29.80 "HgN/A
12:30 AM30 °FPartly cloudy.14 mph93%29.80 "HgN/A
12:00 AM30 °FScattered showers. Passing clouds.12 mph100%29.83 "HgN/A
11:30 PM
Jan 31
30 °FLight snow. Partly cloudy.13 mph100%29.83 "HgN/A
11:00 PM28 °FPartly cloudy.14 mph100%29.86 "HgN/A
10:30 PM30 °FHeavy snow. Ice fog.14 mph100%29.86 "Hg0 mi
10:00 PM28 °FLight snow. Partly cloudy.14 mph100%29.86 "HgN/A
9:30 PM28 °FPartly cloudy.15 mph100%29.89 "HgN/A
9:00 PM30 °FPartly cloudy.15 mph93%29.89 "HgN/A
8:30 PM28 °FSnow. Mostly cloudy.14 mph100%29.92 "Hg2 mi
8:00 PM30 °FLight snow. Mostly cloudy.13 mph86%29.92 "HgN/A
7:30 PM30 °FPartly cloudy.14 mph86%29.92 "HgN/A
7:00 PM30 °FPartly cloudy.13 mph80%29.92 "HgN/A
6:37 PM30 °FLight snow. Passing clouds.12 mph80%29.95 "HgN/A
6:00 PM30 °FOvercast.12 mph80%29.95 "HgN/A
5:30 PM28 °FMostly cloudy.12 mph80%29.95 "HgN/A
5:00 PM30 °FPartly sunny.9 mph69%29.95 "HgN/A
4:30 PM30 °FPartly sunny.10 mph75%29.95 "HgN/A
4:00 PM34 °FPartly sunny.8 mph65%29.98 "HgN/A
3:30 PM34 °FPartly sunny.1 mph65%29.98 "HgN/A
3:00 PM32 °FPartly sunny.6 mph64%29.98 "HgN/A
2:30 PM32 °FPartly sunny.7 mph64%29.98 "HgN/A
2:00 PM34 °FPartly sunny.7 mph65%29.98 "HgN/A
1:30 PM34 °FPartly sunny.12 mph65%29.98 "HgN/A
1:00 PM34 °FPartly sunny.12 mph70%29.98 "HgN/A
12:30 PM34 °FPartly sunny.10 mph65%29.98 "HgN/A
12:00 PM34 °FPartly sunny.6 mph65%29.98 "HgN/A
11:30 AM27 °FPartly sunny.5 mph80%29.98 "HgN/A
11:10 AM30 °FPartly sunny.3 mph69%29.98 "HgN/A
10:30 AM32 °FPartly sunny.8 mph64%29.98 "HgN/A
10:00 AM28 °FPassing clouds.3 mph74%29.98 "HgN/A
9:30 AM30 °FPassing clouds.1 mph64%29.98 "HgN/A
9:00 AM30 °FPassing clouds.5 mph64%29.98 "HgN/A
8:30 AM28 °FPassing clouds.6 mph64%29.98 "HgN/A
8:00 AM27 °FPassing clouds.7 mph69%30.01 "HgN/A
7:30 AM27 °FPassing clouds.2 mph69%29.98 "HgN/A
7:00 AM27 °FPassing clouds.10 mph64%29.98 "HgN/A
6:30 AM28 °FScattered showers. Passing clouds.14 mph69%29.98 "HgN/A
6:00 AM28 °FScattered showers. Passing clouds.10 mph69%29.98 "HgN/A
5:30 AM27 °FScattered showers. Passing clouds.13 mph74%29.98 "HgN/A
5:00 AM28 °FSnow flurries. Partly cloudy.9 mph69%29.95 "HgN/A
Weather by CustomWeather, © 2014

See weather overviewHow to use our weather pages